Location: Marcé
(47.5801°N, 0.3280°W)
Time: 08:39:37
(UTC+01:00)

Vanguard 3 - Pass Details

Date: 13 December 2021
Orbit: 508 x 3260 km, 33.3° (Epoch: 24 January)

Event Time Altitude Azimuth Distance (km) Brightness Sun altitude
Rises 00:37:16 0° 205° (SSW) 5,502 - -65.3°
Reaches altitude 10° 00:41:12 10° 195° (SSW) 4,881 - -65.4°
Maximum altitude 00:53:07 29° 142° (SE) 4,352 - -65.6°
Exits shadow 01:05:33 14° 98° (E) 5,792 11.4 -65.5°
Drops below altitude 10° 01:08:04 10° 93° (E) 6,200 11.6 -65.4°
Sets 01:13:52 0° 84° (E) 7,196 12.1 -65.3°
